Regional Weather Roundup
Issued by NWS Goodland, KS

Home | Current Version | Previous Version | Graphics & Text | Print | Product List | Glossary On
Versions: 1 2 3 4 5 6 7 8 9 10 11 12 13 14 15 16 17 18 19 20 21 22 23 24 25 26 27 28 29 30 31 32 33 34 35 36 37 38 39 40 41 42 43 44 45 46 47 48 49 50
000
ASUS43 KGLD 221108
RWRGLD

GOODLAND FORECAST AREA HOURLY WEATHER ROUNDUP
NATIONAL WEATHER SERVICE GOODLAND KS
500 AM MDT SAT JUL 22 2017

...OFFICIAL OBSERVATIONS...

CITY           SKY/WX    TMP DP  RH WIND       PRES   REMARKS
GOODLAND KS    PTCLDY    69  56  62 W7        29.98S
HILL CITY KS   PTCLDY    74  58  57 W8        29.89R
IMPERIAL NEB   CLOUDY    69  58  67 NE10      29.96R
MCCOOK NEB     PTCLDY    74  57  55 NW8       29.90R
AKRON CO       MOCLDY    64  60  87 NW9       30.09R
BURLINGTON CO  CLOUDY    65  59  81 W7        30.03F
LIMON CO       CLEAR     61  59  93 CALM      30.15R
$$

...UNOFFICIAL OBSERVATIONS...

CITY           SKY/WX    TMP DP  RH WIND       PRES   REMARKS
LENORA KS        N/A     71  32  23 MISG        N/A
NORTON KS      CLEAR     75  50  41 N9        29.86S
SHARON SPRINGS   N/A     65  57  76 CALM        N/A
TRENTON NEB      N/A     69  32  25 N7          N/A
KIT CARSON CO    N/A     66  57  72 CALM        N/A
YUMA CO        FAIR      63  54  72 W15       30.04R
$$




USA.gov is the U.S. government's official web portal to all federal, state and local government web resources and services.